Theta_e
351 356 359 360 359 358 358 358 358 358 360 361 360 360 360 361 360 358 358 358 358 356 356 356 353 354 356 357 358 358 356 353 354 354 353 353 353 350 348 349 349 345 349
354 356 358 362 359 358 357 358 358 359 360 359 358 358 359 359 358 358 357 357 356 356 357 356 355 353 352 353 354 354 355 355 353 351 350 351 351 351 350 347 347 346 351
354 357 355 361 358 357 357 358 358 359 359 360 359 358 358 358 358 358 358 358 358 357 355 354 352 351 351 349 350 350 349 350 350 352 353 356 353 349 353 348 347 350 351
355 358 357 362 360 358 357 357 357 358 359 359 358 358 358 357 356 356 355 355 354 353 352 350 349 348 347 345 345 344 344 345 346 348 351 354 356 355 353 349 348 350 352
355 358 357 362 360 358 359 358 358 357 357 357 358 358 358 357 356 355 354 355 354 354 353 352 351 350 349 349 348 347 347 347 347 347 344 346 348 353 356 355 351 351 351
352 354 357 360 360 358 358 358 358 357 356 356 355 355 355 355 355 354 354 354 354 354 354 354 352 351 350 350 349 348 348 349 349 344 345 344 344 350 348 358 355 355 354
351 354 355 358 359 357 357 357 358 357 357 356 355 355 355 354 353 353 353 354 353 354 354 355 355 354 353 352 350 349 350 350 347 344 345 345 344 347 348 350 359 357 355
351 352 352 357 359 359 358 357 357 357 356 355 354 354 353 352 352 352 352 353 353 353 353 354 354 354 355 354 351 351 352 351 346 344 345 346 349 350 351 353 356 358 357
346 347 350 352 356 357 357 356 355 354 353 352 351 351 352 352 352 352 352 352 352 353 353 353 354 354 355 354 352 352 352 352 348 344 346 349 353 352 354 356 356 359 358
345 346 345 350 350 350 350 354 353 353 352 353 354 354 354 353 352 353 352 350 350 352 353 355 355 356 356 356 355 354 352 352 348 343 349 352 351 352 355 360 358 357 357
345 347 347 347 349 350 350 351 349 347 348 350 346 344 344 349 349 347 344 346 347 348 350 350 352 354 355 354 355 354 350 346 347 349 351 350 349 351 354 356 359 356 355
337 344 348 352 352 353 349 348 345 345 345 345 344 345 345 347 345 339 341 345 343 345 346 347 345 344 346 350 348 347 347 344 346 347 341 344 350 353 354 353 354 353 353
335 340 343 347 350 350 347 344 342 341 341 342 342 342 342 341 340 339 344 343 344 343 342 341 341 344 345 346 344 344 343 341 341 345 339 340 342 347 350 349 348 347 347
335 339 341 342 343 341 340 338 338 339 339 339 339 341 338 337 339 339 340 340 341 344 346 345 339 342 341 340 340 338 340 340 341 341 342 340 339 339 341 343 347 349 350
330 334 337 339 339 337 337 337 337 335 334 332 332 333 333 335 335 337 339 340 340 343 341 341 345 342 337 337 337 334 334 333 334 337 338 339 339 337 338 340 338 340 345
326 324 330 334 337 338 336 333 329 327 328 328 327 326 326 328 330 331 332 333 333 336 337 336 339 344 342 336 335 334 332 330 328 332 334 333 335 335 338 338 340 339 342
322 324 324 330 331 330 330 330 326 323 322 320 320 323 322 321 322 324 322 322 328 329 333 333 335 340 341 342 342 338 335 332 331 335 336 333 335 338 339 339 339 339 340
320 321 322 323 324 324 321 321 322 320 318 316 316 317 319 318 317 318 317 317 318 321 322 322 326 330 334 337 337 338 340 342 343 343 342 341 340 338 336 336 335 336 336
316 317 316 316 316 320 323 319 316 315 311 312 313 313 315 315 315 315 314 315 316 315 316 316 318 321 325 328 330 333 337 337 337 338 339 338 338 336 337 333 330 333 335
314 314 314 314 315 315 318 323 319 315 312 311 312 312 313 313 314 313 313 314 314 314 313 314 315 316 318 324 320 323 332 333 334 335 334 334 333 333 332 332 336 337 338
312 312 312 312 313 312 312 311 314 311 310 310 310 312 312 313 313 314 312 313 314 313 314 315 314 314 314 318 315 318 319 324 334 333 333 331 330 329 328 329 328 329 329
311 310 311 310 311 310 309 309 310 310 310 309 310 311 312 312 313 312 313 313 314 312 314 314 314 312 312 314 311 311 310 315 324 330 330 328 327 329 326 325 325 324 324
309 309 309 309 309 310 310 309 310 310 310 308 308 308 311 312 313 314 313 313 314 313 312 314 314 313 310 313 314 310 308 309 312 319 322 324 325 323 323 324 322 322 321
308 308 308 309 309 309 310 309 308 306 304 306 307 309 310 312 312 313 314 314 314 313 314 314 314 311 310 311 313 314 314 311 306 306 314 315 322 322 326 325 322 318 317
308 307 308 309 309 309 309 309 307 307 306 307 308 309 310 311 313 313 314 314 315 313 315 316 316 314 312 308 309 310 312 312 315 310 306 310 315 320 321 319 321 318 315
307 307 307 307 307 308 308 308 308 307 307 306 307 307 308 310 311 313 313 314 315 314 316 316 315 316 314 314 311 310 309 306 308 308 306 306 311 317 316 319 319 317 315
Wind_Speed
4 4 7 8 10 10 10 11 12 14 14 14 15 15 14 12 11 11 10 8 8 7 7 8 8 7 7 8 8 8 6 6 6 5 4 4 4 4 3 4 5 6 6
5 4 8 8 9 9 9 11 12 13 13 14 14 13 13 12 10 9 8 7 6 6 6 6 6 6 6 6 5 5 5 4 3 2 2 4 2 2 3 4 3 3 5
4 4 7 8 9 8 8 10 11 12 13 14 14 13 12 11 9 8 6 6 5 5 5 5 5 4 4 3 3 3 2 2 3 3 2 4 2 2 7 5 5 5 6
4 3 7 10 10 10 10 10 11 11 11 12 12 12 11 9 7 6 6 5 5 5 4 4 4 3 3 2 2 3 3 3 4 5 7 5 5 7 8 7 7 8 8
5 3 6 10 9 9 10 11 12 12 11 11 11 10 9 7 6 5 5 5 4 4 3 4 4 3 2 2 2 3 4 4 6 8 8 7 6 5 10 10 11 11 10
4 4 7 6 6 7 7 8 9 10 11 10 9 9 7 6 5 3 2 1 1 2 2 2 3 4 4 4 4 4 4 5 7 8 6 7 9 4 8 11 13 10 11
5 5 5 5 5 5 5 6 7 7 7 7 7 6 6 6 6 6 5 4 2 2 4 5 6 7 7 7 7 6 6 7 9 8 7 8 10 7 12 13 15 14 13
7 8 8 7 7 6 5 4 5 6 6 3 3 2 3 4 5 6 6 6 6 7 6 5 6 7 7 7 8 8 9 9 9 9 9 9 8 9 13 14 15 17 15
7 7 6 5 5 8 6 5 5 3 3 2 1 2 4 5 7 6 5 6 7 8 9 8 8 8 8 9 8 9 10 11 12 8 9 7 4 9 14 16 18 18 16
9 8 6 5 5 4 5 6 5 5 5 6 7 8 9 9 9 8 7 7 11 11 12 11 9 9 9 9 9 10 10 12 13 10 8 7 7 13 14 15 17 18 15
10 9 7 6 5 5 5 7 7 9 10 10 9 11 8 6 7 6 5 7 7 8 7 6 5 9 8 8 8 11 7 6 8 7 6 7 12 13 12 5 9 11 12
11 10 9 7 5 5 5 7 8 8 7 7 8 9 6 6 6 9 7 8 8 9 8 9 7 2 3 2 2 2 3 4 6 7 6 10 11 11 10 9 8 10 10
8 8 10 7 8 7 6 5 4 4 5 6 10 9 7 5 5 5 4 4 5 7 5 5 6 4 6 4 3 2 3 3 3 4 7 12 14 13 10 8 6 5 6
10 9 11 10 9 9 6 6 6 6 6 6 8 10 7 5 6 5 4 5 6 6 7 7 5 6 5 2 2 1 0 2 3 3 6 10 9 7 6 9 9 6 6
10 12 12 10 9 8 8 6 7 7 7 7 8 10 9 7 5 5 6 6 7 8 8 8 7 6 6 5 5 4 1 5 5 2 3 12 11 9 15 9 8 12 12
10 12 11 12 11 9 9 10 8 8 7 7 8 10 11 8 7 7 6 6 7 8 8 7 8 7 7 7 8 7 5 2 5 5 3 4 11 13 15 13 14 15 17
8 9 10 9 11 10 9 7 7 7 8 8 7 11 11 11 9 9 7 8 8 8 10 9 9 8 7 8 10 10 9 7 7 8 7 5 6 17 17 17 17 15 16
9 10 10 8 9 10 8 7 6 7 7 6 7 7 11 12 12 9 8 8 9 8 8 9 9 9 8 8 8 8 7 9 10 9 7 6 6 6 10 16 15 13 14
10 10 11 10 9 8 6 5 6 7 7 6 7 7 10 10 11 9 7 8 9 8 7 8 8 8 8 8 10 9 8 7 7 7 7 7 7 6 5 7 7 9 12
10 11 11 10 11 8 4 2 2 4 6 7 7 8 11 9 11 9 7 9 9 8 8 9 10 8 9 8 11 11 9 9 8 5 4 4 2 1 2 4 2 6 11
10 11 11 11 11 9 6 6 4 6 6 7 7 10 10 9 10 9 8 8 8 8 9 9 8 9 8 8 10 8 10 10 3 3 4 4 5 5 6 5 5 4 4
9 9 10 11 10 8 7 5 4 5 4 6 7 8 9 9 9 8 8 7 9 7 9 9 9 8 6 7 7 9 6 6 1 4 5 5 7 5 5 7 7 8 7
8 8 8 8 8 9 9 6 5 3 3 6 7 7 8 10 10 9 9 8 8 7 7 8 8 8 7 7 8 5 5 5 10 4 5 5 6 3 4 4 6 6 6
7 6 6 7 8 8 9 8 9 6 7 7 7 7 7 9 9 9 9 8 8 6 8 7 6 5 5 9 6 5 4 3 3 7 7 9 5 5 2 2 4 6 7
5 6 7 8 9 8 8 8 7 7 6 5 6 9 9 8 8 9 9 8 8 6 7 7 7 7 4 3 5 5 6 5 4 5 8 8 7 5 4 3 4 4 5
5 6 6 7 7 8 9 8 8 9 9 8 8 7 7 7 6 8 9 8 8 9 9 7 8 7 7 5 3 4 4 4 7 3 4 7 9 4 4 3 3 4 5
Wind_Direction
86 127 127 115 113 116 120 112 106 103 98 99 102 103 102 102 104 109 108 105 101 94 92 86 83 81 76 69 65 62 77 91 110 115 119 127 134 132 149 165 168 174 157
128 117 121 109 105 113 122 118 109 101 97 95 93 92 93 93 94 94 95 93 95 94 83 68 66 65 65 71 73 63 56 37 38 139 161 171 176 203 213 198 212 112 185
87 100 119 108 102 106 109 111 110 107 103 101 99 94 91 92 95 95 93 92 86 77 70 69 71 67 68 72 52 57 56 17 350 330 259 249 232 216 209 214 217 217 211
74 101 124 111 116 122 119 109 99 96 96 100 100 101 102 101 98 96 93 84 78 72 65 66 67 61 41 25 15 353 331 314 298 279 242 253 241 173 198 204 211 221 221
96 114 122 115 132 135 131 125 124 123 122 117 115 116 117 110 98 85 70 58 56 58 50 31 17 358 333 318 317 312 307 307 298 274 275 264 252 201 216 210 206 211 218
119 121 117 95 122 126 121 117 119 123 127 128 128 131 136 136 130 122 107 83 33 355 341 324 301 292 294 292 288 276 269 275 277 260 259 259 260 277 243 229 222 217 207
69 54 71 48 61 71 85 104 107 111 110 119 128 140 152 161 169 179 186 186 215 293 305 307 308 305 305 304 296 284 275 272 270 260 257 256 258 249 254 245 219 212 213
57 48 36 39 68 76 93 85 76 79 88 92 122 168 209 205 202 200 210 212 216 219 225 244 266 279 280 279 286 289 288 283 271 270 265 260 254 252 255 251 238 213 207
66 81 82 74 67 76 76 93 103 98 104 117 23 326 306 306 307 305 290 286 276 267 246 230 246 254 257 265 272 274 282 283 284 271 267 262 249 264 264 256 238 217 207
50 50 64 80 66 75 93 63 41 27 25 12 3 355 348 338 354 335 316 5 331 323 303 279 245 234 242 251 261 270 278 282 270 286 268 262 264 274 276 272 229 209 205
46 48 41 49 71 65 59 52 28 22 18 20 17 9 356 351 360 352 0 339 357 342 346 336 305 250 238 245 262 271 270 286 300 283 290 317 279 268 268 276 204 200 202
25 30 28 34 33 54 59 35 37 26 20 16 8 1 355 7 356 341 349 356 351 358 348 340 352 340 240 307 344 4 360 330 304 307 296 337 320 278 246 237 226 226 229
21 30 31 41 42 44 43 27 26 20 14 23 20 16 19 17 11 6 25 32 19 16 7 338 340 355 345 3 8 18 31 354 332 309 322 336 7 357 348 324 301 266 212
39 35 39 37 42 39 32 29 24 32 29 33 23 22 21 21 21 20 16 359 346 350 348 345 331 325 317 296 252 39 82 102 29 329 294 324 323 349 325 317 307 252 242
33 26 29 31 35 37 42 43 41 34 37 38 32 28 21 11 7 11 23 12 4 357 356 344 325 316 313 301 304 301 317 108 69 336 312 324 319 330 312 303 293 311 293
24 18 15 32 30 43 51 49 47 42 35 36 36 27 31 21 14 18 15 18 11 3 354 352 342 324 306 294 299 295 271 216 144 176 237 282 316 308 289 284 286 261 254
40 26 23 29 31 41 49 58 55 46 44 34 26 25 25 26 17 11 19 12 4 2 354 353 354 341 323 312 300 293 288 247 232 218 214 228 193 224 239 262 261 261 269
49 46 48 44 51 54 46 40 49 45 45 33 26 22 19 16 15 13 11 8 357 355 357 354 350 341 338 327 322 310 295 280 283 278 271 234 237 239 248 246 246 249 258
57 51 49 37 28 24 38 51 53 50 38 24 28 20 17 16 16 8 10 4 351 350 352 348 341 336 328 319 313 308 297 291 287 285 278 270 271 267 275 244 271 276 264
58 53 51 44 29 13 0 4 50 46 32 30 28 22 17 16 15 8 8 5 358 355 352 351 339 331 317 311 313 302 296 296 286 286 295 273 279 273 4 6 10 78 44
60 58 46 39 26 19 9 356 360 9 16 27 22 20 17 15 16 18 9 7 360 4 355 353 345 335 325 332 299 308 298 286 314 14 44 46 58 45 39 45 38 34 41
65 54 45 40 31 24 25 14 352 346 12 11 13 15 16 12 15 14 10 8 8 356 2 359 359 343 331 349 330 298 302 302 30 26 26 22 27 23 56 54 50 44 32
72 52 43 37 31 27 13 12 8 0 353 8 7 8 13 11 13 12 13 7 4 356 4 1 3 356 342 339 354 319 319 341 338 298 14 24 7 34 56 67 56 49 39
73 58 42 36 27 29 16 22 21 12 2 2 357 2 359 13 10 7 6 7 5 358 7 8 10 349 343 343 347 2 325 279 305 306 311 319 333 327 17 41 54 59 55
78 43 32 27 22 14 19 18 6 8 1 351 355 354 3 7 11 11 8 3 5 5 6 4 8 13 14 313 334 330 333 323 308 318 316 328 313 8 25 338 38 67 53
78 37 25 14 11 9 18 20 17 12 357 352 357 352 359 2 2 14 3 6 9 2 5 12 8 18 7 356 338 338 331 331 332 309 301 313 319 17 24 31 52 41 16